CDT,Max TemperatureF,Mean TemperatureF,Min TemperatureF,Max Dew PointF,MeanDew PointF,Min DewpointF,Max Humidity, Mean Humidity, Min Humidity, Max Sea Level PressureIn, Mean Sea Level PressureIn, Min Sea Level PressureIn, Max VisibilityMiles, Mean VisibilityMiles, Min VisibilityMiles, Max Wind SpeedMPH, Mean Wind SpeedMPH, Max Gust SpeedMPH,PrecipitationIn, CloudCover, Events, WindDirDegrees
2013-8-1,83,74,64,68,64,60,93,70,47,30.05,30.01,29.98,10,7,2,13,6,18,0.00,1,Rain,310
2013-8-2,83,73,62,69,64,60,93,72,51,30.02,29.99,29.96,10,8,2,15,6,20,0.00,2,,206
2013-8-3,86,76,66,72,67,62,97,78,58,30.08,30.00,29.94,10,8,3,14,5,17,0.00,4,,346
2013-8-4,80,70,60,61,57,54,93,68,42,30.18,30.13,30.09,10,10,9,12,4,16,0.00,0,,16
2013-8-5,83,69,55,64,59,55,100,73,45,30.11,30.04,29.94,10,8,0,14,5,18,0.00,4,Fog-Rain,191
2013-8-6,84,77,70,73,69,64,93,81,69,29.95,29.92,29.88,10,6,3,9,5,12,0.00,6,,178
2013-8-7,86,78,69,73,71,66,100,83,65,29.94,29.90,29.86,10,4,0,13,6,15,0.00,5,Fog-Rain,201
2013-8-8,86,77,68,75,71,66,100,79,57,29.97,29.92,29.87,10,4,0,21,4,25,0.60,5,Fog-Rain-Thunderstorm,249
2013-8-9,84,78,72,72,71,67,100,79,58,30.04,29.98,29.93,9,5,2,9,3,12,T,6,Rain,337
2013-8-10,85,78,71,71,67,63,90,71,51,30.12,30.08,30.05,10,10,8,9,4,14,T,4,Rain,346
2013-8-11,83,74,65,65,62,60,87,67,47,30.13,30.09,30.06,10,10,9,13,4,16,0.00,1,Rain,312
2013-8-12,85,73,61,72,66,61,100,80,59,30.09,30.00,29.91,9,4,0,12,3,15,0.19,4,Fog-Rain,254
2013-8-13,80,69,57,70,63,52,100,79,57,30.12,29.99,29.90,10,7,2,17,9,23,T,2,Rain,352
2013-8-14,74,63,51,53,49,46,93,66,38,30.20,30.16,30.12,10,10,10,18,8,25,0.00,1,,30
2013-8-15,75,63,51,56,52,49,96,70,43,30.18,30.14,30.09,10,10,9,14,6,26,0.00,0,,49
2013-8-16,79,67,54,59,55,52,93,68,42,30.15,30.13,30.10,10,9,7,13,6,17,0.00,0,,51
2013-8-17,80,71,61,63,58,55,87,66,45,30.19,30.14,30.11,10,9,7,10,5,14,T,2,,41
2013-8-18,85,74,62,64,61,58,93,67,40,30.17,30.12,30.08,8,6,2,10,4,16,0.00,2,,58
2013-8-19,87,74,60,66,61,56,100,69,37,30.14,30.11,30.05,10,5,0,8,2,10,0.00,0,Fog,46
2013-8-20,88,76,64,69,65,63,100,73,46,30.14,30.09,30.05,10,6,2,12,2,14,0.00,2,,93
2013-8-21,90,77,64,70,66,64,100,72,44,30.15,30.11,30.05,10,5,0,13,3,16,0.00,1,Fog,258
2013-8-22,90,78,66,75,68,64,100,72,44,30.12,30.08,30.02,8,4,0,20,4,23,0.01,1,Fog-Rain-Thunderstorm,259
2013-8-23,89,79,68,70,66,63,97,71,45,30.12,30.08,30.05,10,8,5,12,6,15,0.00,0,,38
2013-8-24,90,77,64,66,63,58,93,65,36,30.24,30.19,30.13,10,8,4,10,3,15,0.00,0,,77
2013-8-25,91,75,59,67,61,53,93,61,29,30.30,30.24,30.20,10,8,4,9,3,13,0.00,0,,121
2013-8-26,91,79,66,72,69,66,100,75,49,30.25,30.19,30.09,6,3,0,12,5,16,0.00,1,Fog,207
2013-8-27,93,82,70,73,71,69,100,75,49,30.10,30.05,29.99,8,5,2,12,6,15,0.00,0,,229
2013-8-28,96,83,70,73,69,66,100,70,39,30.02,29.98,29.95,9,7,3,18,8,22,0.00,0,,264
2013-8-29,93,82,71,73,71,67,100,72,44,30.05,30.00,29.96,8,5,2,10,3,14,0.00,2,,22
2013-8-30,97,83,69,79,72,66,100,69,38,29.98,29.92,29.84,10,5,2,20,4,25,T,1,Rain-Thunderstorm,195
2013-8-31,99,84,68,75,72,67,100,69,38,29.85,29.80,29.72,10,7,0,40,8,51,0.91,3,Rain-Thunderstorm,197